Weather in Nola

Central African Republic     3°31′13″N   16°03′27″E
temp.,
°C
wind,
m/s
gust,
m/s
humid.,
%
clouds,
%
prec.,
mm/h
press.,
hPa
HPBL,
m
8 march, mon
mon801:00+22s1255100 0.0 101029
04:00+18ssw1280100 0.2 101047
07:00+21sw167583 0.2 1012294
10:00+31wsw354216 0.0 10121445
13:00+37wsw222619 0.0 10073123
16:00+33s343278 0.0 10051225
19:00+27ssw124486 0.0 100724
22:00+24ssw115240 0.0 100824
9 march, tue
tue901:00+22s136244 0.0 100852
04:00+20sw117544 0.0 100923
07:00+21sw117739 0.1 101252
10:00+31ssw25470 0.5 10111127
13:00+39se24240 0.5 10063033
16:00+35ese232869 0.0 10042277
19:00+29ese124054 0.0 100663
22:00+26ssw245257 0.0 1008128
10 march, wed
wed1001:00+22sse117251 0.0 100823
04:00+21s117714 0.0 100825
07:00+22w117316 0.0 101055
10:00+33sw233964 0.0 10101410
13:00+38sse232655 0.0 10052739
16:00+23nnw158279 1.1 1003127
19:00+22ssw118769 1.8 100625
22:00+21sw128538 0.0 100826
11 march, thu
thu1101:00+21w118446 0.0 100825
04:00+19sw119696 2.1 100736
07:00+21w029598 2.5 1009105
10:00+32wsw254793 0.0 10101083
13:00+38ssw222760 0.0 10052624
16:00+34wnw123696 0.1 10031145
19:00+21sse238996 1.9 100585
22:00+20n0188100 1.6 100823
12 march, fri
fri1201:00+20sw1193100 1.9 100823
04:00+19wsw129480 0.7 100726
07:00+20w139270 1.0 1009147
10:00+32wsw244699 0.0 10091152
13:00+39sw232793 0.0 10052846
16:00+32nw134094 0.1 1001303
19:00+25s126194 0.3 100426
22:00+23sw127586 0.1 100830